FW5647 Weather Reports


Display with metric or nautical units.
time (UTC)temp
F
wind
direction
speed
MPH
gust
MPH
rain 1hr
in
rain 24hr
in
rain mn
in
humidity
%
barometer
mb
20260509184538 58 259 7.0 19.0 0.08 0.08 0.08 75 1002.7
20260509183037 66 328 9.0 21.0 0.00 0.00 0.00 54 1002.6
20260509181537 67 245 8.0 25.0 0.00 0.00 0.00 54 1002.1
20260509180037 68 245 7.0 23.0 0.00 0.00 0.00 53 1002.1
20260509174534 67 289 9.0 19.0 0.00 0.00 0.00 53 1002.6
20260509173032 67 206 7.0 17.0 0.00 0.00 0.00 56 1002.5
20260509171533 67 183 7.0 16.0 0.00 0.00 0.00 56 1002.6
20260509170040 67 191 8.0 18.0 0.00 0.00 0.00 55 1002.7
20260509164536 66 162 8.0 17.0 0.00 0.00 0.00 57 1002.7
20260509163048 65 141 6.0 20.0 0.00 0.00 0.00 60 1002.8
20260509161534 65 281 4.0 15.0 0.00 0.00 0.00 59 1002.9
20260509160035 65 205 6.0 15.0 0.00 0.00 0.00 62 1003.1
20260509154533 63 34 4.0 15.0 0.00 0.00 0.00 65 1003.0
20260509153036 64 254 6.0 15.0 0.00 0.00 0.00 64 1003.0
20260509151536 62 252 8.0 19.0 0.00 0.00 0.00 64 1003.4
20260509150038 62 150 5.0 12.0 0.00 0.00 0.00 68 1003.4
20260509144534 61 196 5.0 14.0 0.00 0.00 0.00 71 1003.6
20260509143036 60 88 4.0 11.0 0.00 0.00 0.00 75 1003.6
20260509141537 59 207 4.0 13.0 0.00 0.00 0.00 77 1003.8
20260509140039 57 132 4.0 10.0 0.00 0.00 0.00 80 1003.9
20260509134548 55 117 3.0 10.0 0.00 0.00 0.00 84 1004.1
20260509133053 54 172 4.0 9.0 0.00 0.00 0.00 85 1004.6
20260509131534 54 119 2.0 10.0 0.00 0.00 0.00 88 1004.7
20260509130034 52 253 2.0 9.0 0.00 0.00 0.00 91 1005.0
20260509124538 51 235 3.0 12.0 0.00 0.00 0.00 92 1004.8
20260509123037 51 195 2.0 8.0 0.00 0.00 0.00 94 1004.7
20260509121539 50 154 3.0 9.0 0.00 0.00 0.00 95 1004.8
20260509120036 50 217 3.0 9.0 0.00 0.00 0.00 95 1004.8
20260509114550 49 230 2.0 7.0 0.00 0.00 0.00 95 1005.0
20260509113037 49 217 1.0 8.0 0.00 0.00 0.00 95 1004.9
20260509111536 49 238 1.0 7.0 0.00 0.00 0.00 95 1005.0
20260509110037 48 153 1.0 6.0 0.00 0.00 0.00 95 1004.8
20260509104536 48 0 1.0 6.0 0.00 0.00 0.00 95 1004.8
20260509103035 48 149 1.0 8.0 0.00 0.00 0.00 95 1004.9
20260509101534 48 238 1.0 4.0 0.00 0.00 0.00 95 1004.9
20260509100032 47 246 1.0 4.0 0.00 0.00 0.00 94 1005.0
20260509094537 47 0 0.0 2.0 0.00 0.00 0.00 94 1005.0
20260509093034 47 0 0.0 1.0 0.00 0.00 0.00 94 1005.1
20260509091536 47 0 0.0 1.0 0.00 0.00 0.00 93 1005.1
20260509090032 48 0 0.0 3.0 0.00 0.00 0.00 93 1005.2
20260509084539 48 119 0.0 2.0 0.00 0.00 0.00 93 1005.1
20260509083036 48 0 0.0 2.0 0.00 0.00 0.00 93 1005.2
20260509081534 48 174 0.0 4.0 0.00 0.00 0.00 93 1005.3
20260509080053 47 0 0.0 4.0 0.00 0.00 0.00 92 1005.6
20260509074534 47 200 0.0 2.0 0.00 0.00 0.00 92 1005.7
20260509073117 47 0 0.0 3.0 0.00 0.00 0.00 91 1005.6
20260509071531 47 0 0.0 1.0 0.00 0.00 0.00 91 1005.8
20260509070046 46 0 0.0 1.0 0.00 0.00 0.00 89 1005.9
20260509064534 47 0 0.0 0.0 0.00 0.00 0.00 89 1005.9
20260509063040 47 162 0.0 3.0 0.00 0.00 0.00 88 1006.2
20260509061550 47 0 0.0 1.0 0.00 0.00 0.00 87 1006.3
20260509060039 47 0 0.0 2.0 0.00 0.00 0.00 87 1006.5
20260509054538 47 0 0.0 1.0 0.00 0.00 0.00 87 1006.5
20260509053037 47 165 0.0 1.0 0.00 0.00 0.00 86 1006.7
20260509051545 48 0 0.0 0.0 0.00 0.00 0.00 85 1006.7
20260509050041 48 0 0.0 0.0 0.00 0.00 0.00 84 1006.9
20260509044538 49 0 0.0 1.0 0.00 0.00 0.00 84 1006.9
20260509043042 50 0 0.0 2.0 0.00 0.00 0.00 85 1007.1
20260509041543 50 0 0.0 2.0 0.00 0.00 0.00 85 1007.1
20260509040042 50 0 0.0 2.0 0.00 0.00 0.00 85 1007.3
20260509034533 49 158 0.0 0.0 0.00 0.00 0.00 83 1007.4
20260509033034 50 0 0.0 0.0 0.00 0.00 0.00 81 1007.2
20260509031538 51 0 0.0 1.0 0.00 0.00 0.00 79 1007.4
20260509030039 51 0 0.0 0.0 0.00 0.00 0.00 78 1007.5
20260509024534 53 0 0.0 2.0 0.00 0.00 0.00 76 1007.7
20260509023032 53 0 0.0 1.0 0.00 0.00 0.00 75 1007.7
20260509021532 53 297 0.0 1.0 0.00 0.00 0.00 75 1007.7
20260509020034 54 0 0.0 1.0 0.00 0.00 0.00 72 1007.3
20260509014533 56 0 0.0 3.0 0.00 0.00 0.00 71 1007.5
20260509013046 56 307 1.0 3.0 0.00 0.00 0.00 69 1007.2
20260509011536 57 134 0.0 5.0 0.00 0.00 0.00 66 1006.9
20260509010032 58 262 1.0 4.0 0.00 0.00 0.00 62 1006.9
20260509004559 59 105 1.0 3.0 0.00 0.00 0.00 53 1006.7
20260509003043 60 225 0.0 2.0 0.00 0.00 0.00 48 1006.7
20260509001536 61 264 2.0 5.0 0.00 0.00 0.00 46 1006.5
20260509000036 62 259 2.0 7.0 0.00 0.00 0.00 45 1006.5
20260508234534 64 255 3.0 7.0 0.00 0.00 0.00 42 1006.5
20260508233037 64 231 3.0 6.0 0.00 0.00 0.00 40 1006.5
20260508231537 64 321 3.0 10.0 0.00 0.00 0.00 40 1006.5
20260508230050 63 212 2.0 7.0 0.00 0.00 0.00 41 1006.6
20260508224537 63 331 3.0 12.0 0.00 0.00 0.00 39 1006.6
20260508223034 64 282 2.0 14.0 0.00 0.00 0.00 39 1006.6
20260508221537 65 293 2.0 7.0 0.00 0.00 0.00 40 1006.8
20260508220046 63 266 3.0 9.0 0.00 0.00 0.00 42 1007.0
20260508214546 64 252 3.0 14.0 0.00 0.00 0.00 40 1006.9
20260508213037 63 253 3.0 12.0 0.00 0.00 0.00 42 1007.0
20260508211536 65 309 5.0 10.0 0.00 0.00 0.00 41 1006.9
20260508210042 64 239 3.0 13.0 0.00 0.00 0.00 41 1007.1
20260508204541 64 271 4.0 12.0 0.00 0.00 0.00 38 1007.0
20260508203037 63 263 5.0 11.0 0.00 0.00 0.00 38 1007.2
20260508201537 63 241 5.0 13.0 0.00 0.00 0.00 38 1007.4
20260508200045 62 256 2.0 13.0 0.00 0.00 0.00 39 1007.7
20260508194535 63 256 6.0 13.0 0.00 0.00 0.00 39 1008.0
20260508193037 63 307 5.0 13.0 0.00 0.00 0.00 41 1008.2
20260508191544 62 310 4.0 15.0 0.00 0.00 0.00 39 1008.5
20260508190049 62 278 4.0 10.0 0.00 0.00 0.00 41 1008.8